0 HST 1 20580U 90037B 25308.90224495 .00006932 00000-0 24373-3 0 9999 2 20580 28.4662 169.8920 0001792 162.0286 198.0372 15.27312898754208 0 ISS (ZARYA) 1 25544U 98067A 25308.93822298 .00010846 00000-0 19941-3 0 9997 2 25544 51.6335 329.6155 0005046 18.0946 342.0222 15.49755997536997 0 CXO 1 25867U 99040B 25309.59259291 .00000745 00000-0 00000-0 0 9997 2 25867 52.3453 123.8670 8207779 310.6717 0.0538 0.37811702 16477